#timestamp,LO_Frequency,Hit,StdDev 
1570219215.2,286047005.6,Y
1570219235.0,286046999.7,P
1570219235.9,286046999.7,N
1570219255.8,286047002.5,N
1570219275.6,286047001.7,N
1570219295.4,286047001.7,N
1570219315.3,286047003.1,N
1570219335.1,286047003.2,N
1570219355.8,286047001.3,N
1570219375.7,286047003.2,N
1570219395.5,286047006.0,Y
1570219415.4,286047001.6,P
1570219435.2,286047002.6,P
1570219455.0,286047000.8,N
1570219455.9,286047000.8,N
1570219475.8,286046998.4,N
1570219495.6,286046996.9,N
1570219515.4,286046997.5,N
1570219535.3,286046995.0,N
1570219555.1,286046999.1,N
1570219575.9,286046998.8,N
1570219595.7,286047000.5,N
1570219615.5,286047000.3,N
1570219635.4,286046999.0,N
1570219655.2,286046999.1,N
1570219675.1,286046998.4,N
1570219676.0,286046998.4,N
1570219695.8,286046999.6,N
1570219715.6,286046999.4,N
1570219735.5,286047000.3,N
1570219755.3,286047000.0,N
1570219775.2,286047000.6,N
1570219795.9,286046998.1,N
1570219815.7,286046999.4,N
1570219835.6,286046996.6,N
1570219855.4,286046999.5,N
1570219875.3,286046996.6,N
1570219895.1,286046998.6,N
1570219896.0,286046998.6,N
1570219915.8,286047000.7,N
1570219935.7,286047000.0,N
1570219955.5,286047002.8,N
1570219975.3,286047001.9,N
1570219995.2,286047001.7,N
1570220015.0,286047002.0,N
1570220015.9,286047002.0,N
1570220035.8,286047000.0,N
1570220055.6,286046998.3,N
1570220075.5,286047001.1,N
1570220095.3,286046998.5,N
1570220115.1,286047000.6,N
1570220135.9,286046998.3,N
1570220155.7,286046997.3,N
1570220175.6,286046997.3,N
1570220195.4,286046997.9,N
1570220215.2,286046996.9,N
1570220235.1,286046999.6,N
1570220236.0,286046999.6,N
1570220255.8,286046998.3,N
1570220275.6,286047001.8,N
1570220295.5,286047001.8,N
1570220315.3,286047001.9,N
1570220335.2,286047002.5,N
1570220355.9,286047002.5,N
1570220375.7,286047002.6,N
1570220395.6,286047000.6,N
1570220415.4,286046998.2,N
1570220435.2,286047000.2,N
1570220455.1,286046998.6,N
1570220456.0,286046998.6,N
1570220475.8,286046998.7,N
1570220495.7,286046998.2,N
1570220515.5,286046998.6,N
1570220535.3,286046999.5,N
1570220555.2,286047001.2,N
1570220575.0,286046998.3,N
1570220575.9,286046998.3,N
1570220595.8,286047001.2,N
1570220615.6,286047000.6,N
1570220635.4,286046998.6,N
1570220655.3,286046998.7,N
1570220675.1,286046998.2,N
1570220695.9,286047002.7,N
1570220715.7,286047002.8,N
1570220735.5,286047000.9,N
1570220755.4,286047000.0,N
1570220775.2,286047001.0,N
1570220795.1,286046998.5,N
1570220796.0,286046998.5,N
1570220815.8,286046996.5,N
1570220835.6,286046996.7,N
1570220855.5,286046996.9,N
1570220875.3,286046996.7,N
1570220895.2,286046997.1,N
1570220915.0,286046997.8,N
1570220915.9,286046997.8,N
1570220935.7,286046997.0,N
1570220955.6,286046996.9,N
1570220975.4,286046999.5,N
1570220995.3,286046999.0,N
1570221015.1,286046996.8,N
1570221016.0,286046996.8,N
1570221035.8,286046997.8,N
1570221055.7,286046996.5,N
1570221075.5,286046998.0,N
1570221095.4,286046995.0,N
1570221115.2,286046995.8,N
1570221135.0,286046995.5,N
1570221135.9,286046995.5,N
1570221155.8,286046995.9,N
1570221175.6,286046997.3,N
1570221195.4,286046997.7,N
1570221215.3,286046999.3,N
1570221235.1,286046998.2,N
1570221255.9,286047000.4,N
1570221275.7,286046999.7,N
1570221295.5,286047002.6,N
1570221315.4,286047000.3,N
1570221335.2,286046999.9,N
1570221355.0,286047000.4,N
1570221356.0,286047000.4,N
1570221375.8,286047002.3,N
1570221395.6,286047000.2,N
1570221415.5,286046999.7,N
1570221435.3,286047000.9,N
1570221455.9,286047000.2,N
1570221475.7,286047001.5,N
1570221495.6,286047003.1,N
1570221515.4,286047003.6,N
1570221535.2,286047004.0,N
1570221555.1,286047003.8,N
1570221556.0,286047003.8,N
1570221575.8,286047001.6,N
1570221595.7,286047003.2,N
1570221615.5,286047004.1,N
1570221635.3,286047003.7,N
1570221655.2,286047003.1,N
1570221675.0,286047003.8,N
1570221675.9,286047003.8,N
1570221695.7,286047004.3,N
1570221715.6,286047003.6,N
1570221735.4,286047003.2,N
1570221755.3,286047003.8,N
1570221775.1,286047003.2,N
1570221795.8,286047003.1,N
1570221815.7,286047003.2,N
1570221835.5,286047004.4,N
1570221855.4,286047001.5,N
1570221875.2,286047004.0,N
1570221895.0,286047003.9,N
1570221895.9,286047003.9,N
1570221915.8,286047003.7,N
1570221935.6,286047002.8,N
1570221955.4,286046999.7,N
1570221975.3,286047000.2,N
1570221995.1,286047000.5,N
1570222015.9,286047000.5,N
1570222035.7,286047000.4,N
1570222055.5,286047002.3,N
1570222075.4,286047000.6,N
1570222095.2,286046999.8,N
1570222115.1,286047002.2,N
1570222116.0,286047002.2,N
1570222135.8,286047001.9,N
1570222155.6,286047000.8,N
1570222175.5,286046999.9,N
1570222195.3,286047001.0,N
1570222215.1,286046998.2,N
1570222235.9,286046998.7,N
1570222255.7,286046999.1,N
1570222275.6,286046998.6,N
1570222295.4,286046998.1,N
1570222315.2,286047001.1,N
1570222335.1,286047001.1,N
1570222336.0,286047001.1,N
1570222355.8,286047000.7,N
1570222375.7,286047000.6,N
1570222395.5,286047001.0,N
1570222415.3,286046999.9,N
1570222435.2,286047000.4,N
1570222455.0,286047000.5,N
1570222455.9,286047000.5,N
1570222475.8,286047001.2,N
1570222495.6,286046999.4,N
1570222515.4,286046997.6,N
1570222535.3,286046997.1,N
1570222555.1,286046997.9,N
1570222575.8,286046997.6,N
1570222595.7,286046997.7,N
1570222615.5,286046997.0,N
1570222635.4,286046996.9,N
1570222655.2,286046997.2,N
1570222675.0,286046999.1,N
1570222675.9,286046999.1,N
1570222695.8,286046998.9,N
1570222715.6,286046999.5,N
1570222735.5,286046996.5,N
1570222755.3,286046996.9,N
1570222775.1,286046996.7,N
1570222795.9,286046996.9,N
